Weather History for KHSI - December, 2011

Change the Weather History Date:

Tuesday, December 27, 2011

  Actual Average Record
Temperature  
Mean Temperature 33 °F 26 °F  
Max Temperature 43 °F 35 °F 64 °F (1937)
Min Temperature 23 °F 16 °F -5 °F (1924)
Degree Days  
Heating Degree Days 32 39  
Month to date heating degree days 1020 1001  
Since 1 July heating degree days 2250 2282  
Cooling Degree Days 0 0  
Month to date cooling degree days 0 0  
Year to date cooling degree days 1119 1077  
Moisture  
Dew Point 21 °F    
Average Humidity 57    
Maximum Humidity 75    
Minimum Humidity 39    
Precipitation  
Precipitation 0.00 in 0.01 in 1.02 in (1982)
Month to date precipitation 0.97 0.55  
Year to date precipitation 27.08 27.05  
Snow  
Snow 0.00 in 0.20 in 6.00 in (1987)
Month to date snowfall 9.4 5.3  
Since 1 July snowfall 9.4 9.1  
Snow Depth 0.00 in    
Sea Level Pressure  
Sea Level Pressure 30.09 in    
Wind  
Wind Speed 9 mph (WNW)    
Max Wind Speed 16 mph    
Max Gust Speed 22 mph    
Visibility 10 miles    
Events      
T = Trace of Precipitation, MM = Missing Value Source: NWS Daily Summary

Daily Weather History Graph

Daily Weather History Graph

Search for Another Location

Airport or City:

Trip Planner

Search our weather history database for the weather conditions in past years. The results will help you decide how hot, cold, wet, or windy it might be!

Date:

Astronomy

Dec. 27, 2011 Rise Set
Actual Time 7:56 AM CST 5:13 PM CST
Civil Twilight 7:25 AM CST 5:44 PM CST
Nautical Twilight 6:50 AM CST 6:18 PM CST
Astronomical Twilight 6:17 AM CST 6:51 PM CST
Moon 9:51 AM CST (12/27) 8:49 PM CST (12/27)
Length of Visible Light 10h 18m
Length of Day
9h 17m
Waxing Crescent, 11% of the Moon is Illuminated
Dec 27
Waxing Crescent
Jan 1
First Quarter
Jan 9
Full
Jan 16
Last Quarter
Jan 23
New

Hourly Weather History & Observations

Time (CST) Temp. Windchill Dew Point Humidity Pressure Visibility Wind Dir Wind Speed Gust Speed Precip Events Conditions
12:53 AM 33.1 °F 23.9 °F 23.0 °F 66% 30.06 in 10.0 mi WNW 12.7 mph - N/A   Clear
1:53 AM 33.1 °F 23.0 °F 21.9 °F 64% 30.06 in 10.0 mi NW 15.0 mph - N/A   Clear
2:53 AM 30.9 °F 22.2 °F 21.9 °F 69% 30.09 in 10.0 mi NW 10.4 mph - N/A   Clear
3:53 AM 30.0 °F 20.5 °F 21.0 °F 69% 30.09 in 10.0 mi WNW 11.5 mph - N/A   Clear
4:53 AM 30.0 °F 19.5 °F 19.9 °F 66% 30.09 in 10.0 mi WNW 13.8 mph - N/A   Clear
5:53 AM 28.0 °F 17.5 °F 19.0 °F 69% 30.12 in 10.0 mi WNW 12.7 mph - N/A   Clear
6:53 AM 26.1 °F 16.2 °F 19.0 °F 75% 30.13 in 10.0 mi NW 10.4 mph - N/A   Clear
7:53 AM 24.1 °F 16.0 °F 18.0 °F 77% 30.14 in 10.0 mi WNW 6.9 mph - N/A   Clear
8:53 AM 27.0 °F 18.7 °F 19.0 °F 72% 30.16 in 10.0 mi NNW 8.1 mph - N/A   Clear
9:53 AM 32.0 °F 23.6 °F 21.0 °F 64% 30.17 in 10.0 mi NW 10.4 mph - N/A   Clear
10:53 AM 36.0 °F 26.7 °F 21.0 °F 55% 30.17 in 10.0 mi NW 15.0 mph - N/A   Clear
11:53 AM 37.9 °F 31.5 °F 23.0 °F 55% 30.14 in 10.0 mi WNW 9.2 mph - N/A   Clear
12:53 PM 41.0 °F 34.7 °F 24.1 °F 51% 30.11 in 10.0 mi WNW 10.4 mph - N/A   Clear
1:53 PM 41.0 °F 34.7 °F 23.0 °F 49% 30.10 in 10.0 mi WNW 10.4 mph - N/A   Clear
2:53 PM 42.1 °F 37.1 °F 21.0 °F 43% 30.08 in 10.0 mi West 8.1 mph - N/A   Clear
3:53 PM 42.8 °F 39.3 °F 19.4 °F 39% 30.03 in 10.0 mi WNW 5.8 mph - N/A   Clear
4:53 PM 39.0 °F - 21.9 °F 50% 30.09 in 10.0 mi Calm Calm - N/A   Clear
5:53 PM 39.0 °F - 21.0 °F 49% 30.09 in 10.0 mi Calm Calm - N/A   Clear
6:53 PM 36.0 °F - 21.0 °F 55% 30.09 in 10.0 mi Calm Calm - N/A   Clear
7:53 PM 35.6 °F 32.8 °F 21.2 °F 56% 30.03 in 10.0 mi South 3.5 mph - N/A   Clear
8:53 PM 36.0 °F 31.1 °F 19.9 °F 52% 30.06 in 10.0 mi South 5.8 mph - N/A   Clear
9:53 PM 34.0 °F 27.2 °F 21.9 °F 61% 30.04 in 10.0 mi South 8.1 mph - N/A   Clear
10:53 PM 34.0 °F 28.0 °F 23.0 °F 64% 30.02 in 10.0 mi South 6.9 mph - N/A   Partly Cloudy
11:53 PM 32.0 °F 24.2 °F 21.9 °F 66% 30.01 in 10.0 mi South 9.2 mph - N/A   Clear